TimeCST,TemperatureF,Dew PointF,Humidity,Sea Level PressureIn,VisibilityMPH,Wind Direction,Wind SpeedMPH,Gust SpeedMPH,PrecipitationIn,Events,Conditions,WindDirDegrees,DateUTC
12:15 AM,44.6,33.8,66,30.07,10.0,South,11.5,-,N/A,,Clear,180,2012-11-21 06:15:00
12:35 AM,44.6,35.6,71,30.06,10.0,South,12.7,-,N/A,,Clear,180,2012-11-21 06:35:00
12:55 AM,42.8,35.6,76,30.06,10.0,South,8.1,-,N/A,,Clear,190,2012-11-21 06:55:00
1:15 AM,44.6,35.6,71,30.06,10.0,South,9.2,-,N/A,,Clear,190,2012-11-21 07:15:00
1:35 AM,44.6,35.6,71,30.06,10.0,South,10.4,-,N/A,,Clear,190,2012-11-21 07:35:00
1:55 AM,46.4,35.6,66,30.06,10.0,SSW,13.8,-,N/A,,Clear,200,2012-11-21 07:55:00
2:15 AM,46.4,35.6,66,30.06,10.0,SSW,10.4,-,N/A,,Clear,200,2012-11-21 08:15:00
2:35 AM,46.4,35.6,66,30.06,10.0,SSW,13.8,-,N/A,,Clear,200,2012-11-21 08:35:00
2:55 AM,46.4,35.6,66,30.05,10.0,SSW,16.1,-,N/A,,Clear,200,2012-11-21 08:55:00
3:15 AM,46.4,35.6,66,30.04,10.0,SSW,15.0,-,N/A,,Clear,200,2012-11-21 09:15:00
3:35 AM,46.4,35.6,66,30.04,10.0,SSW,15.0,-,N/A,,Clear,200,2012-11-21 09:35:00
3:55 AM,46.4,35.6,66,30.04,10.0,SSW,16.1,-,N/A,,Clear,210,2012-11-21 09:55:00
4:15 AM,46.4,35.6,66,30.03,10.0,SSW,18.4,-,N/A,,Clear,210,2012-11-21 10:15:00
4:35 AM,46.4,35.6,66,30.03,10.0,SSW,19.6,-,N/A,,Clear,210,2012-11-21 10:35:00
4:55 AM,46.4,35.6,66,30.03,10.0,SSW,17.3,-,N/A,,Clear,210,2012-11-21 10:55:00
5:15 AM,46.4,35.6,66,30.02,10.0,SSW,19.6,25.3,N/A,,Clear,210,2012-11-21 11:15:00
5:35 AM,46.4,35.6,66,30.01,10.0,SSW,20.7,-,N/A,,Clear,210,2012-11-21 11:35:00
5:55 AM,46.4,35.6,66,30.01,10.0,SSW,18.4,26.5,N/A,,Clear,210,2012-11-21 11:55:00
6:15 AM,46.4,35.6,66,30.00,10.0,SSW,20.7,-,N/A,,Clear,210,2012-11-21 12:15:00
6:35 AM,46.4,35.6,66,30.00,10.0,SSW,18.4,24.2,N/A,,Clear,210,2012-11-21 12:35:00
6:55 AM,46.4,37.4,71,30.00,10.0,SW,18.4,26.5,N/A,,Clear,220,2012-11-21 12:55:00
7:15 AM,46.4,37.4,71,30.00,10.0,SSW,20.7,-,N/A,,Clear,210,2012-11-21 13:15:00
7:35 AM,46.4,37.4,71,30.00,10.0,SSW,20.7,-,N/A,,Clear,210,2012-11-21 13:35:00
7:55 AM,48.2,37.4,66,30.01,10.0,SSW,19.6,-,N/A,,Clear,210,2012-11-21 13:55:00
8:15 AM,48.2,37.4,66,30.00,10.0,SSW,19.6,25.3,N/A,,Clear,210,2012-11-21 14:15:00
8:35 AM,48.2,37.4,66,30.01,10.0,SW,16.1,-,N/A,,Clear,220,2012-11-21 14:35:00
8:55 AM,50.0,37.4,62,30.01,10.0,SW,12.7,18.4,N/A,,Clear,220,2012-11-21 14:55:00
9:15 AM,51.8,39.2,62,30.01,10.0,SW,15.0,20.7,N/A,,Clear,220,2012-11-21 15:15:00
9:35 AM,53.6,39.2,58,30.01,10.0,SW,19.6,27.6,N/A,,Clear,220,2012-11-21 15:35:00
9:55 AM,53.6,39.2,58,30.01,10.0,SW,20.7,27.6,N/A,,Clear,220,2012-11-21 15:55:00
10:15 AM,55.4,41.0,58,30.00,10.0,SW,21.9,27.6,N/A,,Clear,220,2012-11-21 16:15:00
10:35 AM,57.2,39.2,51,29.99,10.0,SW,20.7,31.1,N/A,,Clear,220,2012-11-21 16:35:00
10:55 AM,60.8,39.2,45,29.98,10.0,SW,23.0,32.2,N/A,,Clear,220,2012-11-21 16:55:00
11:15 AM,62.6,41.0,45,29.98,10.0,SW,26.5,32.2,N/A,,Clear,220,2012-11-21 17:15:00
11:35 AM,62.6,41.0,45,29.97,10.0,SW,26.5,-,N/A,,Clear,220,2012-11-21 17:35:00
11:55 AM,64.4,41.0,42,29.96,10.0,SSW,25.3,32.2,N/A,,Clear,210,2012-11-21 17:55:00
12:15 PM,66.2,41.0,40,29.94,10.0,SW,25.3,31.1,N/A,,Clear,220,2012-11-21 18:15:00
12:35 PM,66.2,41.0,40,29.93,10.0,SW,28.8,-,N/A,,Clear,220,2012-11-21 18:35:00
12:55 PM,66.2,41.0,40,29.93,10.0,SW,24.2,32.2,N/A,,Clear,220,2012-11-21 18:55:00
1:15 PM,68.0,41.0,37,29.92,10.0,SSW,21.9,27.6,N/A,,Clear,200,2012-11-21 19:15:00
1:35 PM,69.8,42.8,38,29.91,10.0,SW,23.0,34.5,N/A,,Clear,220,2012-11-21 19:35:00
1:55 PM,69.8,42.8,38,29.90,10.0,SSW,25.3,35.7,N/A,,Clear,210,2012-11-21 19:55:00
2:15 PM,68.0,42.8,40,29.89,10.0,SSW,20.7,33.4,N/A,,Clear,210,2012-11-21 20:15:00
2:35 PM,69.8,41.0,35,29.87,10.0,SSW,26.5,32.2,N/A,,Clear,210,2012-11-21 20:35:00
2:55 PM,69.8,41.0,35,29.87,10.0,SSW,20.7,32.2,N/A,,Clear,210,2012-11-21 20:55:00
3:15 PM,69.8,41.0,35,29.86,10.0,SSW,25.3,32.2,N/A,,Clear,210,2012-11-21 21:15:00
3:35 PM,68.0,41.0,37,29.85,10.0,SSW,23.0,29.9,N/A,,Clear,200,2012-11-21 21:35:00
3:55 PM,68.0,41.0,37,29.85,10.0,South,19.6,26.5,N/A,,Clear,190,2012-11-21 21:55:00
4:15 PM,66.2,41.0,40,29.84,10.0,South,20.7,-,N/A,,Clear,190,2012-11-21 22:15:00
4:35 PM,64.4,42.8,45,29.84,10.0,South,17.3,-,N/A,,Clear,190,2012-11-21 22:35:00
4:55 PM,62.6,42.8,48,29.83,10.0,South,18.4,-,N/A,,Clear,180,2012-11-21 22:55:00
5:15 PM,60.8,42.8,52,29.83,10.0,South,16.1,-,N/A,,Clear,180,2012-11-21 23:15:00
5:35 PM,60.8,41.0,48,29.84,10.0,South,13.8,-,N/A,,Clear,190,2012-11-21 23:35:00
5:55 PM,59.0,41.0,51,29.85,10.0,South,13.8,-,N/A,,Clear,190,2012-11-21 23:55:00
6:15 PM,57.2,41.0,55,29.84,10.0,SSW,13.8,-,N/A,,Clear,200,2012-11-22 00:15:00
6:35 PM,57.2,41.0,55,29.84,10.0,South,13.8,-,N/A,,Clear,180,2012-11-22 00:35:00
6:55 PM,57.2,41.0,55,29.83,10.0,South,18.4,-,N/A,,Clear,190,2012-11-22 00:55:00
7:15 PM,59.0,41.0,51,29.83,10.0,South,17.3,-,N/A,,Clear,190,2012-11-22 01:15:00
7:35 PM,59.0,41.0,51,29.82,10.0,South,18.4,25.3,N/A,,Clear,190,2012-11-22 01:35:00
7:55 PM,59.0,42.8,55,29.81,10.0,SSW,20.7,28.8,N/A,,Clear,200,2012-11-22 01:55:00
8:15 PM,59.0,42.8,55,29.80,10.0,SSW,24.2,29.9,N/A,,Clear,200,2012-11-22 02:15:00
8:35 PM,59.0,42.8,55,29.80,10.0,South,23.0,28.8,N/A,,Clear,190,2012-11-22 02:35:00
8:55 PM,57.2,42.8,59,29.80,10.0,South,17.3,23.0,N/A,,Clear,190,2012-11-22 02:55:00
9:15 PM,57.2,44.6,63,29.80,10.0,South,19.6,25.3,N/A,,Clear,190,2012-11-22 03:15:00
9:35 PM,57.2,44.6,63,29.79,10.0,South,21.9,28.8,N/A,,Clear,190,2012-11-22 03:35:00
9:55 PM,57.2,44.6,63,29.79,10.0,South,19.6,-,N/A,,Clear,190,2012-11-22 03:55:00
10:15 PM,57.2,44.6,63,29.78,10.0,SSW,19.6,27.6,N/A,,Clear,200,2012-11-22 04:15:00
10:35 PM,57.2,44.6,63,29.78,10.0,SSW,18.4,24.2,N/A,,Clear,200,2012-11-22 04:35:00
10:55 PM,55.4,44.6,67,29.77,10.0,SSW,17.3,23.0,N/A,,Clear,200,2012-11-22 04:55:00
11:15 PM,55.4,44.6,67,29.77,10.0,South,16.1,-,N/A,,Clear,190,2012-11-22 05:15:00
11:35 PM,53.6,44.6,72,29.77,10.0,South,12.7,-,N/A,,Clear,180,2012-11-22 05:35:00
11:55 PM,51.8,44.6,76,29.76,10.0,South,11.5,-,N/A,,Clear,180,2012-11-22 05:55:00